| time (UTC) | temp C | wind direction | speed KPH | gust KPH | rain 1hr cm | rain 24hr cm | rain mn cm | humidity % | barometer mb |
| 20260906005958 | 17 | 289 | 11.3 | 17.7 | 0.00 | 0.00 | 0.00 | 79 | 1022.0 |
| 20260906004957 | 17 | 289 | 11.3 | 17.7 | 0.00 | 0.00 | 0.00 | 79 | 1022.0 |
| 20260906003957 | 17 | 289 | 11.3 | 17.7 | 0.00 | 0.00 | 0.00 | 79 | 1022.0 |
| 20260906002956 | 17 | 289 | 11.3 | 17.7 | 0.00 | 0.00 | 0.00 | 79 | 1021.0 |
| 20260906001956 | 17 | 289 | 11.3 | 17.7 | 0.00 | 0.00 | 0.00 | 79 | 1021.0 |
| 20260906000955 | 17 | 289 | 11.3 | 17.7 | 0.00 | 0.00 | 0.00 | 79 | 1021.0 |
| 20260905235955 | 17 | 289 | 11.3 | 17.7 | 0.00 | 0.00 | 0.00 | 79 | 1021.0 |
| 20260905234954 | 17 | 289 | 11.3 | 17.7 | 0.00 | 0.00 | 0.00 | 79 | 1021.0 |
| 20260905233954 | 17 | 289 | 11.3 | 17.7 | 0.00 | 0.00 | 0.00 | 79 | 1021.0 |
| 20260905232953 | 17 | 289 | 11.3 | 17.7 | 0.00 | 0.00 | 0.00 | 79 | 1021.0 |
| 20260905231953 | 17 | 289 | 11.3 | 17.7 | 0.00 | 0.00 | 0.00 | 79 | 1021.0 |
| 20260905230952 | 17 | 289 | 11.3 | 17.7 | 0.00 | 0.00 | 0.00 | 79 | 1021.0 |
| 20260905225952 | 17 | 289 | 11.3 | 17.7 | 0.00 | 0.00 | 0.00 | 79 | 1021.0 |
| 20260905224951 | 20 | 302 | 11.3 | 20.9 | 0.00 | 0.00 | 0.00 | 64 | 1021.0 |
| 20260905223950 | 20 | 302 | 11.3 | 20.9 | 0.00 | 0.00 | 0.00 | 64 | 1021.0 |
| 20260905222950 | 20 | 302 | 11.3 | 20.9 | 0.00 | 0.00 | 0.00 | 64 | 1021.0 |
| 20260905221950 | 20 | 302 | 11.3 | 20.9 | 0.00 | 0.00 | 0.00 | 64 | 1021.0 |
| 20260905220948 | 20 | 302 | 11.3 | 20.9 | 0.00 | 0.00 | 0.00 | 64 | 1021.0 |
| 20260905215947 | 20 | 302 | 11.3 | 20.9 | 0.00 | 0.00 | 0.00 | 64 | 1021.0 |
| 20260905214947 | 20 | 302 | 11.3 | 20.9 | 0.00 | 0.00 | 0.00 | 64 | 1021.0 |
| 20260905213947 | 20 | 302 | 11.3 | 20.9 | 0.00 | 0.00 | 0.00 | 64 | 1021.0 |
| 20260905212946 | 20 | 302 | 11.3 | 20.9 | 0.00 | 0.00 | 0.00 | 64 | 1020.0 |
| 20260905211946 | 20 | 302 | 11.3 | 20.9 | 0.00 | 0.00 | 0.00 | 64 | 1020.0 |
| 20260905210945 | 20 | 302 | 11.3 | 20.9 | 0.00 | 0.00 | 0.00 | 64 | 1020.0 |
| 20260905205945 | 20 | 302 | 11.3 | 20.9 | 0.00 | 0.00 | 0.00 | 64 | 1020.0 |
| 20260905204944 | 20 | 302 | 11.3 | 20.9 | 0.00 | 0.00 | 0.00 | 64 | 1020.0 |
| 20260905203944 | 20 | 302 | 11.3 | 20.9 | 0.00 | 0.00 | 0.00 | 64 | 1020.0 |
| 20260905202944 | 20 | 302 | 11.3 | 20.9 | 0.00 | 0.00 | 0.00 | 64 | 1020.0 |
| 20260905201943 | 20 | 302 | 11.3 | 20.9 | 0.00 | 0.00 | 0.00 | 64 | 1020.0 |
| 20260905200943 | 20 | 302 | 11.3 | 20.9 | 0.00 | 0.00 | 0.00 | 64 | 1020.0 |
| 20260905195942 | 20 | 302 | 11.3 | 20.9 | 0.00 | 0.00 | 0.00 | 64 | 1020.0 |
| 20260905194942 | 20 | 302 | 11.3 | 20.9 | 0.00 | 0.00 | 0.00 | 64 | 1020.0 |
| 20260905193941 | 20 | 302 | 11.3 | 20.9 | 0.00 | 0.00 | 0.00 | 64 | 1020.0 |
| 20260905192941 | 20 | 302 | 11.3 | 20.9 | 0.00 | 0.00 | 0.00 | 64 | 1019.0 |
| 20260905191941 | 20 | 302 | 11.3 | 20.9 | 0.00 | 0.00 | 0.00 | 64 | 1019.0 |
| 20260905190940 | 20 | 302 | 11.3 | 20.9 | 0.00 | 0.00 | 0.00 | 64 | 1019.0 |
| 20260905185940 | 20 | 302 | 11.3 | 20.9 | 0.00 | 0.00 | 0.00 | 64 | 1019.0 |
| 20260905184939 | 20 | 302 | 11.3 | 20.9 | 0.00 | 0.00 | 0.00 | 64 | 1019.0 |
| 20260905183939 | 21 | 298 | 11.3 | 27.4 | 0.00 | 0.00 | 0.00 | 68 | 1019.0 |
| 20260905182938 | 21 | 298 | 11.3 | 27.4 | 0.00 | 0.00 | 0.00 | 68 | 1018.0 |
| 20260905181938 | 21 | 298 | 11.3 | 27.4 | 0.00 | 0.00 | 0.00 | 68 | 1018.0 |
| 20260905180938 | 21 | 298 | 11.3 | 27.4 | 0.23 | 0.00 | 0.00 | 68 | 1018.0 |
| 20260905175937 | 21 | 298 | 11.3 | 27.4 | 0.20 | 0.00 | 0.00 | 68 | 1019.0 |
| 20260905174937 | 21 | 298 | 11.3 | 27.4 | 0.20 | 0.00 | 0.00 | 68 | 1019.0 |
| 20260905173936 | 23 | 293 | 11.3 | 24.1 | 0.15 | 0.00 | 0.00 | 41 | 1019.0 |
| 20260905172936 | 23 | 293 | 11.3 | 24.1 | 0.00 | 0.00 | 0.00 | 41 | 1018.0 |
| 20260905171935 | 23 | 293 | 11.3 | 24.1 | 0.00 | 0.00 | 0.00 | 41 | 1018.0 |
| 20260905170935 | 23 | 293 | 11.3 | 24.1 | 0.00 | 0.00 | 0.00 | 41 | 1018.0 |
| 20260905165934 | 26 | 293 | 11.3 | 24.1 | 0.00 | 0.00 | 0.00 | 35 | 1018.0 |
| 20260905164934 | 26 | 293 | 11.3 | 24.1 | 0.00 | 0.00 | 0.00 | 35 | 1018.0 |
| 20260905163934 | 25 | 299 | 20.9 | 38.6 | 0.00 | 0.00 | 0.00 | 35 | 1018.0 |
| 20260905162933 | 25 | 299 | 20.9 | 38.6 | 0.00 | 0.00 | 0.00 | 35 | 1018.0 |
| 20260905161933 | 25 | 299 | 20.9 | 38.6 | 0.00 | 0.00 | 0.00 | 35 | 1018.0 |
| 20260905160932 | 25 | 299 | 20.9 | 38.6 | 0.00 | 0.00 | 0.00 | 35 | 1018.0 |
| 20260905155932 | 25 | 299 | 20.9 | 38.6 | 0.00 | 0.00 | 0.00 | 35 | 1019.0 |
| 20260905154931 | 25 | 299 | 20.9 | 38.6 | 0.00 | 0.00 | 0.00 | 35 | 1019.0 |
| 20260905153931 | 27 | 328 | 33.8 | 33.8 | 0.00 | 0.00 | 0.00 | 32 | 1019.0 |
| 20260905152930 | 27 | 328 | 33.8 | 33.8 | 0.00 | 0.00 | 0.00 | 32 | 1017.0 |
| 20260905151930 | 27 | 328 | 33.8 | 33.8 | 0.00 | 0.00 | 0.00 | 32 | 1017.0 |
| 20260905150929 | 27 | 328 | 33.8 | 33.8 | 0.00 | 0.00 | 0.00 | 32 | 1017.0 |
| 20260905145929 | 27 | 328 | 33.8 | 33.8 | 0.00 | 0.00 | 0.00 | 32 | 1018.0 |
| 20260905144928 | 27 | 328 | 33.8 | 33.8 | 0.00 | 0.00 | 0.00 | 32 | 1018.0 |
| 20260905143927 | 27 | 328 | 33.8 | 33.8 | 0.00 | 0.00 | 0.00 | 32 | 1018.0 |
| 20260905142927 | 27 | 328 | 33.8 | 33.8 | 0.00 | 0.00 | 0.00 | 32 | 1017.0 |
| 20260905141926 | 27 | 328 | 33.8 | 33.8 | 0.00 | 0.00 | 0.00 | 32 | 1017.0 |
| 20260905140926 | 27 | 328 | 33.8 | 33.8 | 0.00 | 0.00 | 0.00 | 32 | 1017.0 |
| 20260905135926 | 27 | 328 | 33.8 | 33.8 | 0.00 | 0.00 | 0.00 | 32 | 1018.0 |
| 20260905134925 | 27 | 328 | 33.8 | 33.8 | 0.00 | 0.00 | 0.00 | 32 | 1018.0 |
| 20260905133925 | 27 | 328 | 33.8 | 33.8 | 0.00 | 0.00 | 0.00 | 33 | 1018.0 |
| 20260905132924 | 27 | 328 | 33.8 | 33.8 | 0.00 | 0.00 | 0.00 | 33 | 1017.0 |
| 20260905131924 | 27 | 328 | 33.8 | 33.8 | 0.00 | 0.00 | 0.00 | 35 | 1018.0 |
| 20260905130923 | 27 | 328 | 33.8 | 33.8 | 0.00 | 0.00 | 0.00 | 35 | 1018.0 |
| 20260905125923 | 27 | 328 | 33.8 | 33.8 | 0.00 | 0.00 | 0.00 | 35 | 1018.0 |
| 20260905124923 | 27 | 328 | 33.8 | 33.8 | 0.00 | 0.00 | 0.00 | 35 | 1018.0 |
| 20260905123922 | 27 | 328 | 33.8 | 33.8 | 0.00 | 0.00 | 0.00 | 35 | 1018.0 |
| 20260905122922 | 27 | 328 | 33.8 | 33.8 | 0.00 | 0.00 | 0.00 | 35 | 1017.0 |
| 20260905121921 | 27 | 328 | 33.8 | 33.8 | 0.00 | 0.00 | 0.00 | 35 | 1017.0 |
| 20260905120921 | 27 | 328 | 33.8 | 33.8 | 0.00 | 0.00 | 0.00 | 35 | 1017.0 |
| 20260905115920 | 27 | 328 | 33.8 | 33.8 | 0.00 | 0.00 | 0.00 | 35 | 1017.0 |
| 20260905114920 | 27 | 328 | 33.8 | 33.8 | 0.00 | 0.00 | 0.00 | 35 | 1017.0 |
| 20260905113919 | 30 | 333 | 32.2 | 29.0 | 0.00 | 0.00 | 0.00 | 23 | 1017.0 |
| 20260905112919 | 30 | 333 | 32.2 | 29.0 | 0.00 | 0.00 | 0.00 | 23 | 1016.0 |
| 20260905111919 | 30 | 333 | 32.2 | 29.0 | 0.00 | 0.00 | 0.00 | 23 | 1016.0 |
| 20260905110917 | 30 | 333 | 32.2 | 29.0 | 0.00 | 0.00 | 0.00 | 23 | 1016.0 |
| 20260905105917 | 30 | 333 | 32.2 | 29.0 | 0.00 | 0.00 | 0.00 | 23 | 1016.0 |
| 20260905104916 | 30 | 333 | 32.2 | 30.6 | 0.00 | 0.00 | 0.00 | 23 | 1016.0 |
| 20260905103916 | 35 | 331 | 22.5 | 24.1 | 0.00 | 0.00 | 0.00 | 21 | 1016.0 |
| 20260905102915 | 35 | 331 | 22.5 | 24.1 | 0.00 | 0.00 | 0.00 | 21 | 1016.0 |
| 20260905101915 | 35 | 331 | 22.5 | 24.1 | 0.00 | 0.00 | 0.00 | 21 | 1016.0 |
| 20260905100914 | 35 | 331 | 22.5 | 24.1 | 0.00 | 0.00 | 0.00 | 21 | 1016.0 |
| 20260905095914 | 35 | 331 | 22.5 | 24.1 | 0.00 | 0.00 | 0.00 | 21 | 1016.0 |
| 20260905094913 | 29 | 331 | 22.5 | 24.1 | 0.00 | 0.00 | 0.00 | 34 | 1016.0 |
| 20260905093913 | 28 | 325 | 16.1 | 20.9 | 0.00 | 0.00 | 0.00 | 36 | 1016.0 |
| 20260905092913 | 28 | 325 | 16.1 | 20.9 | 0.00 | 0.00 | 0.00 | 36 | 1015.0 |
| 20260905091911 | 28 | 325 | 16.1 | 20.9 | 0.00 | 0.00 | 0.00 | 36 | 1015.0 |
| 20260905090911 | 28 | 325 | 16.1 | 20.9 | 0.00 | 0.00 | 0.00 | 36 | 1015.0 |
| 20260905085910 | 28 | 325 | 16.1 | 20.9 | 0.00 | 0.00 | 0.00 | 36 | 1015.0 |
| 20260905084910 | 28 | 325 | 16.1 | 20.9 | 0.00 | 0.00 | 0.00 | 36 | 1015.0 |
| 20260905083910 | 26 | 269 | 12.9 | 17.7 | 0.00 | 0.00 | 0.00 | 36 | 1015.0 |
| 20260905082909 | 26 | 269 | 12.9 | 17.7 | 0.00 | 0.00 | 0.00 | 36 | 1015.0 |
| 20260905081908 | 26 | 269 | 12.9 | 17.7 | 0.00 | 0.00 | 0.00 | 36 | 1015.0 |
| 20260905080908 | 26 | 269 | 12.9 | 17.7 | 0.00 | 0.00 | 0.00 | 36 | 1015.0 |
| 20260905075908 | 26 | 269 | 12.9 | 17.7 | 0.00 | 0.00 | 0.00 | 36 | 1015.0 |
| 20260905074908 | 26 | 269 | 12.9 | 17.7 | 0.00 | 0.00 | 0.00 | 36 | 1015.0 |
| 20260905073907 | 26 | 269 | 12.9 | 17.7 | 0.00 | 0.00 | 0.00 | 36 | 1015.0 |
| 20260905072907 | 26 | 269 | 12.9 | 17.7 | 0.00 | 0.00 | 0.00 | 36 | 1015.0 |
| 20260905071906 | 26 | 269 | 12.9 | 17.7 | 0.00 | 0.00 | 0.00 | 36 | 1015.0 |
| 20260905070906 | 26 | 269 | 12.9 | 17.7 | 0.00 | 0.00 | 0.00 | 36 | 1015.0 |
| 20260905065905 | 26 | 269 | 14.5 | 19.3 | 0.00 | 0.00 | 0.00 | 36 | 1015.0 |
| 20260905064905 | 26 | 269 | 14.5 | 19.3 | 0.00 | 0.00 | 0.00 | 36 | 1015.0 |
| 20260905063905 | 21 | 204 | 12.9 | 38.6 | 0.00 | 0.00 | 0.00 | 46 | 1015.0 |
| 20260905062904 | 21 | 204 | 12.9 | 38.6 | 0.00 | 0.00 | 0.00 | 46 | 1014.0 |
| 20260905061904 | 21 | 204 | 12.9 | 38.6 | 0.00 | 0.00 | 0.00 | 46 | 1014.0 |
| 20260905060903 | 21 | 204 | 12.9 | 38.6 | 0.00 | 0.00 | 0.00 | 46 | 1014.0 |
| 20260905055903 | 21 | 204 | 12.9 | 38.6 | 0.00 | 0.00 | 0.00 | 46 | 1015.0 |
| 20260905054903 | 21 | 204 | 12.9 | 38.6 | 0.00 | 0.00 | 0.00 | 46 | 1015.0 |
| 20260905053902 | 21 | 204 | 12.9 | 38.6 | 0.00 | 0.00 | 0.00 | 46 | 1015.0 |
| 20260905052902 | 21 | 204 | 12.9 | 38.6 | 0.00 | 0.00 | 0.00 | 46 | 1015.0 |
| 20260905051902 | 21 | 204 | 12.9 | 38.6 | 0.00 | 0.00 | 0.00 | 46 | 1015.0 |
| 20260905050901 | 21 | 204 | 12.9 | 38.6 | 0.00 | 0.00 | 0.00 | 46 | 1015.0 |
| 20260905045901 | 21 | 204 | 12.9 | 38.6 | 0.00 | 0.00 | 0.00 | 46 | 1015.0 |
| 20260905044900 | 21 | 204 | 12.9 | 38.6 | 0.00 | 0.00 | 0.00 | 46 | 1015.0 |
| 20260905043900 | 21 | 204 | 12.9 | 38.6 | 0.00 | 0.00 | 0.00 | 46 | 1015.0 |
| 20260905042859 | 21 | 204 | 12.9 | 38.6 | 0.00 | 0.00 | 0.00 | 46 | 1014.0 |
| 20260905041859 | 21 | 204 | 12.9 | 38.6 | 0.00 | 0.00 | 0.00 | 46 | 1014.0 |
| 20260905040859 | 21 | 204 | 12.9 | 38.6 | 0.00 | 0.00 | 0.00 | 46 | 1014.0 |
| 20260905035858 | 21 | 204 | 12.9 | 38.6 | 0.00 | 0.00 | 0.00 | 46 | 1014.0 |
| 20260905034858 | 21 | 204 | 12.9 | 38.6 | 0.00 | 0.00 | 0.00 | 46 | 1014.0 |
| 20260905033857 | 21 | 204 | 12.9 | 38.6 | 0.00 | 0.00 | 0.00 | 46 | 1014.0 |
| 20260905032857 | 21 | 204 | 12.9 | 38.6 | 0.00 | 0.00 | 0.00 | 46 | 1014.0 |
| 20260905031856 | 21 | 204 | 12.9 | 38.6 | 0.00 | 0.00 | 0.00 | 46 | 1014.0 |
| 20260905030856 | 21 | 204 | 12.9 | 38.6 | 0.00 | 0.00 | 0.00 | 46 | 1014.0 |
| 20260905025856 | 21 | 204 | 12.9 | 38.6 | 0.00 | 0.00 | 0.00 | 46 | 1014.0 |
| 20260905024855 | 21 | 204 | 12.9 | 38.6 | 0.00 | 0.00 | 0.00 | 46 | 1014.0 |
| 20260905023855 | 21 | 204 | 12.9 | 38.6 | 0.00 | 0.00 | 0.00 | 46 | 1014.0 |
| 20260905022854 | 21 | 204 | 12.9 | 38.6 | 0.00 | 0.00 | 0.00 | 46 | 1014.0 |
| 20260905021854 | 21 | 204 | 12.9 | 38.6 | 0.00 | 0.00 | 0.00 | 46 | 1014.0 |
| 20260905020854 | 21 | 204 | 12.9 | 38.6 | 0.00 | 0.00 | 0.00 | 46 | 1014.0 |
| 20260905015853 | 21 | 204 | 12.9 | 38.6 | 0.00 | 0.00 | 0.00 | 46 | 1014.0 |
| 20260905014853 | 21 | 204 | 12.9 | 38.6 | 0.00 | 0.00 | 0.00 | 46 | 1015.0 |
| 20260905013852 | 21 | 204 | 12.9 | 38.6 | 0.00 | 0.00 | 0.00 | 46 | 1014.0 |
| 20260905012852 | 21 | 204 | 12.9 | 38.6 | 0.00 | 0.00 | 0.00 | 46 | 1014.0 |
| 20260905011852 | 21 | 204 | 12.9 | 38.6 | 0.00 | 0.00 | 0.00 | 46 | 1014.0 |
| 20260905010851 | 21 | 204 | 12.9 | 38.6 | 0.00 | 0.00 | 0.00 | 46 | 1014.0 |